Home > Time Zones > World Clock > Weather > Cuba > Havana > Past weeks

Flag for Cuba Weather past 2 weeks in Havana, Cuba

Now
88 °F

Scattered clouds.


Feels Like: 96 °F
Forecast: 80 / 91 °F
Wind: 7 mph from Southeast

Location: Aeropuerto Jose Marti - Rancho-Boyeros - Habana

Current Time: Jul 6, 2015 at 12:36:50 PM

Latest Report: Jul 6, 2015 at 11:55 AM


Visibility: 6 mi

Pressure: 30.12 "Hg

Humidity: 62%

Dew point: 73 °F

Location of HavanaLocation

Historic Weather in Havana — Graph

°F

Havana temperature yesterday

Maximum temperature yesterday: 91 °F (at 1:55 PM)
Minimum temperature yesterday: 75 °F (at 5:55 AM)
Average temperature yesterday: 82 °F

Past Weeks' High & Low Weather Summary

 TemperatureHumidityPressure
High93 °F (Jun 25, 2:55 PM)94% (Jun 27, 7:55 AM)30.15 "Hg (Jun 27, 7:55 AM)
Low70 °F (Jun 30, 4:55 AM)41% (Jun 25, 2:55 PM)30.01 "Hg (Jun 25, 5:55 PM)
Average82 °F71%30.08 "Hg
* Reported Jun 21 10:55 AM — Jul 6 10:55 AM, Havana, Weather by CustomWeather, © 2015

Note: Actual official high and low records may vary slightly from our data, if they occured in-between our weather recording intervals... More about our weather records

Advertising

Havana weather history for previous 24 hours

 ConditionsComfort  
Time TempWeatherWind HumidityBarometerVisibility
10:55 AM
Mon, Jul 6
86 °FPassing clouds.10 mph62%30.12 "Hg6 mi
9:55 AM84 °FSunny.10 mph66%30.12 "Hg6 mi
8:55 AM82 °FSunny.8 mph70%30.12 "Hg6 mi
7:55 AM79 °FPassing clouds.6 mph84%30.12 "Hg6 mi
6:55 AM77 °FPassing clouds.7 mph83%30.12 "Hg5 mi
5:55 AM77 °FPassing clouds.5 mph83%30.09 "Hg5 mi
4:55 AM77 °FPassing clouds.3 mph83%30.09 "Hg5 mi
3:55 AM77 °FPassing clouds.6 mph83%30.09 "Hg5 mi
2:55 AM77 °FPassing clouds.6 mph83%30.09 "Hg5 mi
1:55 AM77 °FPassing clouds.6 mph83%30.12 "Hg5 mi
12:55 AM77 °FPassing clouds.3 mph79%30.12 "Hg5 mi
11:55 PM
Sun, Jul 5
77 °FPassing clouds.3 mph83%30.12 "Hg5 mi
10:55 PM79 °FPassing clouds.5 mph79%30.09 "Hg5 mi
9:55 PM81 °FPassing clouds.5 mph74%30.09 "Hg5 mi
8:55 PM81 °FPassing clouds.1 mph74%30.09 "Hg5 mi
7:55 PM82 °FPartly sunny.6 mph70%30.09 "Hg5 mi
6:55 PM86 °FPartly sunny.8 mph62%30.07 "Hg5 mi
5:55 PM84 °FBroken clouds.10 mph70%30.07 "Hg6 mi
4:59 PM79 °FThunderstorms. Broken clouds.15 mph61%30.09 "Hg3 mi
3:55 PM90 °FPartly sunny.13 mph59%30.07 "Hg6 mi
2:55 PM91 °FPartly sunny.7 mph46%30.09 "Hg6 mi
1:55 PM91 °FPartly sunny.10 mph49%30.09 "HgN/A
12:55 PM90 °FPartly sunny.10 mph52%30.12 "HgN/A
Weather by CustomWeather, © 2015

See weather overviewHow to use our weather pages